Hagerstown, MD

6:45 AM EDT on May 30, 2017 (GMT -0400)
Hagerstown Regional-Henson

Weather History for KHGR - May, 2013

Change the Weather History Date:

Thursday, May 16, 2013

  Actual Average Record
Temperature  
Mean Temperature 73 °F 62 °F  
Max Temperature 81 °F 72 °F 89 °F (1998)
Min Temperature 64 °F 52 °F 38 °F (2016)
Degree Days  
Heating Degree Days 0 5  
Month to date heating degree days 103 103  
Since 1 July heating degree days 4887 5117  
Cooling Degree Days 8 2  
Month to date cooling degree days 11 18  
Year to date cooling degree days 37 33  
Growing Degree Days 22 (Base 50)    
Moisture  
Dew Point 57 °F    
Average Humidity 66    
Maximum Humidity 87    
Minimum Humidity 45    
Precipitation  
Precipitation 0.05 in 0.12 in 1.70 in (2014)
Month to date precipitation 1.55 1.93  
Year to date precipitation 9.51 14.10  
Sea Level Pressure  
Sea Level Pressure 29.86 in    
Wind  
Wind Speed 8 mph (WSW)    
Max Wind Speed 18 mph    
Max Gust Speed 23 mph    
Visibility 10 miles    
Events Rain    
T = Trace of Precipitation, MM = Missing Value Source: NWS Daily Summary

Daily Weather History Graph

Daily Weather History Graph

Search for Another Location

Airport or City:

Trip Planner

Search our weather history database for the weather conditions in past years. The results will help you decide how hot, cold, wet, or windy it might be!

Date:

Astronomy

May. 16, 2013 Rise Set
Actual Time 5:55 AM EDT 8:19 PM EDT
Civil Twilight 5:24 AM EDT 8:50 PM EDT
Nautical Twilight 4:46 AM EDT 9:28 PM EDT
Astronomical Twilight 4:05 AM EDT 10:10 PM EDT
Moon 11:26 AM EDT (5/16) 12:39 AM EDT (5/16)
Length of Visible Light 15h 25m
Length of Day
14h 24m
Waxing Crescent, 35% of the Moon is Illuminated
May 16
Waxing Crescent
May 18
First Quarter
May 25
Full
May 31
Last Quarter
Jun 8
New

Hourly Weather History & Observations

Time (EDT) Temp. Dew Point Humidity Pressure Visibility Wind Dir Wind Speed Gust Speed Precip Events Conditions
12:53 AM 77.0 °F 57.0 °F 50% 29.78 in 10.0 mi SW 5.8 mph - N/A   Partly Cloudy
1:53 AM 77.0 °F 55.9 °F 48% 29.78 in 10.0 mi SSW 4.6 mph - N/A   Clear
2:53 AM 71.1 °F 55.9 °F 59% 29.77 in 10.0 mi South 4.6 mph - N/A   Clear
3:53 AM 75.0 °F 53.1 °F 46% 29.77 in 10.0 mi WSW 4.6 mph - N/A   Clear
4:53 AM 73.9 °F 53.1 °F 48% 29.79 in 10.0 mi SW 4.6 mph - N/A   Mostly Cloudy
5:53 AM 73.9 °F 54.0 °F 50% 29.81 in 10.0 mi West 13.8 mph - N/A   Mostly Cloudy
6:53 AM 70.0 °F 57.0 °F 63% 29.84 in 10.0 mi West 11.5 mph - N/A   Mostly Cloudy
7:53 AM 66.9 °F 60.1 °F 79% 29.86 in 10.0 mi Variable 5.8 mph - 0.00 in   Scattered Clouds
8:53 AM 64.9 °F 61.0 °F 87% 29.88 in 9.0 mi WSW 10.4 mph 19.6 mph 0.03 in Rain Light Rain
9:53 AM 66.0 °F 62.1 °F 87% 29.85 in 10.0 mi WNW 6.9 mph - 0.02 in   Scattered Clouds
10:53 AM 66.0 °F 62.1 °F 87% 29.88 in 10.0 mi SSE 9.2 mph - N/A   Partly Cloudy
11:53 AM 69.1 °F 61.0 °F 75% 29.89 in 10.0 mi SW 10.4 mph - N/A   Clear
12:53 PM 72.0 °F 61.0 °F 68% 29.87 in 10.0 mi WSW 11.5 mph - N/A   Clear
1:53 PM 75.0 °F 62.1 °F 64% 29.86 in 10.0 mi WSW 9.2 mph - N/A   Clear
2:53 PM 78.1 °F 61.0 °F 56% 29.86 in 10.0 mi WSW 10.4 mph - N/A   Scattered Clouds
3:53 PM 79.0 °F 59.0 °F 50% 29.84 in 10.0 mi West 12.7 mph 18.4 mph N/A   Partly Cloudy
4:53 PM 78.1 °F 55.0 °F 45% 29.84 in 10.0 mi West 8.1 mph - N/A   Clear
5:53 PM 79.0 °F 55.0 °F 44% 29.85 in 10.0 mi West 9.2 mph - N/A   Clear
6:53 PM 77.0 °F 51.1 °F 40% 29.86 in 10.0 mi West 10.4 mph - N/A   Clear
7:53 PM 75.0 °F 52.0 °F 44% 29.88 in 10.0 mi West 8.1 mph - N/A   Clear
8:53 PM 73.0 °F 55.9 °F 55% 29.91 in 10.0 mi WSW 8.1 mph - N/A   Clear
9:53 PM 71.1 °F 55.9 °F 59% 29.94 in 10.0 mi SW 5.8 mph - N/A   Clear
10:53 PM 69.1 °F 55.9 °F 63% 29.96 in 10.0 mi West 8.1 mph - N/A   Clear
11:53 PM 68.0 °F 57.0 °F 68% 29.97 in 10.0 mi West 3.5 mph - N/A   Clear